Location: Dreeßel
(52.9793°N, 9.4693°E)
Time: 10:12:44
(UTC+00:00)

Daily predictions for brighter satellites

Satellite Brightness Start Highest point End
(mag) Time Altitude Azimuth Time Altitude Azimuth Time Altitude Azimuth
Cosmos 2233 Rocket 4.1 19:46:07 10° S 19:52:12 64° E 19:58:17 10° NNE
ATLAS 2AS CENTAUR R/B 3.8 19:46:13 10° WSW 19:52:53 49° NNW 19:59:29 10° NE
SKYMED 3 4.3 19:52:25 10° NNE 19:56:23 74° ESE 20:00:21 10° S
Cosmos 1980 Rocket 3.6 19:52:50 10° NW 19:57:57 35° WSW 20:03:02 10° S
CZ-2C R/B 4.0 19:56:21 10° ESE 19:58:07 16° ENE 19:59:53 10° NNE
COSMOS 2406 3.7 19:54:03 10° S 19:59:20 40° ESE 20:04:39 10° NE
Okean-O 2.6 19:56:16 10° SSE 20:00:39 82° ENE 20:05:03 10° NNW
Cosmos 1782 2.6 19:57:16 10° SSW 20:00:47 83° W 20:04:20 10° N
CZ-4 R/B 3.2 19:58:09 10° SSW 20:01:12 25° W 20:04:19 10° NW
Cosmos 724 4.4 19:56:28 10° SW 20:02:30 86° NW 20:08:26 10° NE
Ariane Rocket 3.7 19:58:34 10° SE 20:03:19 42° ENE 20:08:05 10° N
Meteor 1-20 Rocket 4.4 19:58:13 10° N 20:03:45 61° ENE 20:09:21 10° SSE
Cosmos 1758 Rocket 3.7 20:01:17 10° N 20:05:40 64° ENE 20:10:03 10° SSE
Cosmos 1933 4.2 20:02:49 10° SSE 20:06:07 29° E 20:09:27 10° NNE
SPOT 3 Rocket 3.8 20:01:43 10° SE 20:06:44 55° ENE 20:11:45 10° N
Spot 2 Rocket 3.6 20:03:38 10° SSE 20:08:39 80° WSW 20:13:43 10° NNW
DNEPR-1 R/B 4.4 20:03:49 10° NW 20:09:05 76° NE 20:15:33 10° SE
Cosmos 2333 Rocket 2.3 20:04:46 10° NNW 20:10:30 77° ENE 20:16:14 10° SE
Cosmos 1725 Rocket 4.3 20:04:41 10° SSW 20:10:57 73° WNW 20:17:12 10° N
ERS-1 Rocket 4.3 20:10:15 10° SSW 20:14:54 38° W 20:19:35 10° NNW
Tsikada Rocket 4.3 20:11:13 10° NNW 20:17:22 71° W 20:23:28 10° S
Cosmos 2360 Rocket 2.5 20:18:45 10° NNW 20:24:25 62° NE 20:29:39 12° SE
USA 245 4.3 20:20:06 10° SSE 20:25:59 82° ENE 20:31:29 10° NNW
Cosmos 1461 3.0 20:23:40 10° SSW 20:27:07 38° SE 20:30:34 10° NE
CZ-4B R/B 4.5 20:22:43 10° SSW 20:28:00 40° W 20:33:16 10° NNW
Cosmos 1602 Rocket 3.6 20:25:35 10° N 20:29:53 65° ENE 20:33:49 12° SSE
CZ-4B R/B 3.4 20:25:37 11° SSE 20:30:10 70° ENE 20:35:02 10° NNW
CZ-4C R/B 3.1 20:26:25 10° WSW 20:30:54 50° NNW 20:36:46 10° NE
Cosmos 1992 Rocket 4.0 20:26:40 10° SSW 20:31:53 86° ESE 20:37:07 10° NNE
YAOGAN 11 4.1 20:28:37 10° NNE 20:33:04 88° ESE 20:37:32 10° SSW
Cosmos 1777 Rocket 4.1 20:31:26 10° NNW 20:36:42 70° ENE 20:41:09 14° SE
ISS -3.8 20:34:07 10° W 20:37:27 71° S 20:40:48 10° E
Cosmos 2219 Rocket 2.7 20:32:16 10° NNW 20:37:48 52° NE 20:42:48 13° SE
Meteor 1-25 Rocket 4.2 20:32:47 10° NNW 20:38:31 83° ENE 20:43:46 12° SSE
Cosmos 220 Rocket 4.2 20:36:36 10° S 20:40:27 44° ESE 20:44:22 10° NE
Cosmos 1437 Rocket 2.5 20:37:08 10° S 20:40:39 70° E 20:44:15 10° NNE
USA 290 3.8 20:39:45 16° SE 20:40:46 19° ESE 20:43:03 10° ENE
SL-08 R/B 4.1 20:38:34 10° N 20:43:19 56° WNW 20:47:56 10° SW
Cosmos 1503 Rocket 4.2 20:40:01 10° NNW 20:45:13 65° ENE 20:49:23 15° SE
Cosmos 1626 Rocket 4.3 20:41:58 10° NNW 20:46:12 50° W 20:50:26 10° S
DEBRIS 3.7 20:43:59 10° WSW 20:47:18 61° S 20:57:46 10° E
Cosmos 1076 Rocket 4.2 20:44:29 10° N 20:48:32 40° ENE 20:51:27 17° SE
Cosmos 2098 Rocket 3.3 20:44:22 12° SSE 20:48:36 50° E 20:52:35 10° NNE
NOSS 3-3 (A) 3.9 20:45:00 10° SW 20:50:20 84° NW 20:56:54 10° NE
Terra 4.1 20:49:19 10° SW 20:52:47 20° W 20:56:15 10° NW
RESURS DK-1 4.3 20:50:27 10° NNW 20:53:36 22° NE 20:56:43 10° E
Cosmos 2151 3.5 20:50:12 10° NNW 20:54:14 53° W 20:58:09 10° S
Cosmos 2322 Rocket 2.2 20:50:33 10° NNW 20:56:15 82° WSW 21:00:46 17° SSE
Cosmos 1486 Rocket 4.1 20:51:03 10° NNW 20:56:20 78° WSW 21:00:35 16° SSE
Cosmos 1513 Rocket 4.5 20:52:10 10° S 20:58:23 83° E 21:04:32 10° NNE
IRS-1C Rocket 4.2 20:53:40 13° S 20:58:24 76° WSW 21:03:43 10° NNW
Cosmos 1354 Rocket 4.3 20:54:17 10° NNW 20:59:30 61° ENE 21:03:26 17° SE
Cosmos 1464 Rocket 4.1 20:53:50 12° S 20:59:32 62° E 21:05:39 10° NNE
Cosmos 909 Rocket 4.2 20:54:28 10° SW 21:00:45 79° NW 21:07:28 10° NE
Cosmos 2082 Rocket 3.3 20:56:52 10° SW 21:02:25 49° NW 21:07:58 10° NNE
USA 306 1.4 21:01:16 10° W 21:03:56 61° N 21:04:50 24° ENE
Meteor 2-10 4.3 20:58:52 10° NNW 21:04:39 87° E 21:09:14 16° SSE
Cosmos 1606 Rocket 3.7 21:03:17 17° S 21:06:30 57° E 21:10:44 10° NNE
Cosmos 1766 3.9 21:08:42 10° N 21:11:38 30° ENE 21:13:02 21° ESE
CZ-4B R/B 3.8 21:09:42 12° SSW 21:12:28 35° W 21:15:41 10° NNW
USA 186 4.3 21:12:46 10° WSW 21:13:59 12° W 21:15:13 10° WNW
Cosmos 2237 Rocket 4.0 21:09:24 10° NNW 21:14:00 24° NE 21:18:36 10° E
Cosmos 1428 Rocket 4.5 21:08:03 10° N 21:14:19 85° ENE 21:19:09 18° SSE
Cosmos 1726 Rocket 3.7 21:12:34 21° SSE 21:14:58 49° E 21:18:54 10° NNE
Cosmos 1092 Rocket 4.3 21:10:04 10° N 21:16:07 53° ENE 21:20:29 19° SE
Okean O Rocket 3.7 21:13:06 10° SW 21:16:21 21° W 21:19:38 10° NW
Cosmos 540 Rocket 4.0 21:13:16 18° SSE 21:16:34 40° ESE 21:21:22 10° NE
Aureole 1 Rocket 4.2 21:12:12 10° NNW 21:17:41 60° ENE 21:22:39 18° SE
Cosmos 1805 3.6 21:17:07 10° NNW 21:20:15 44° W 21:22:21 18° SSW
NOSS 3-3 (C) 4.2 21:16:54 10° WSW 21:22:21 69° NW 21:29:02 10° NE
COSMOS 2428 3.5 21:20:09 10° NNW 21:25:37 45° NE 21:30:13 14° ESE
SL-16 R/B 3.5 21:21:29 10° NW 21:26:27 32° WSW 21:30:55 12° SSW
Okean 1-7 Rocket 4.0 21:22:57 10° NNW 21:27:21 59° W 21:30:35 18° S
CZ-2C R/B 3.3 21:27:13 19° SSW 21:28:39 32° W 21:31:11 10° NNW
Geosat 4.5 21:27:38 10° NE 21:32:22 41° ESE 21:35:08 22° S
NOSS 3-4 (A) 4.3 21:26:55 10° NW 21:33:20 50° SW 21:38:39 19° S
NOSS 3-4 (C) 4.3 21:27:32 10° NW 21:33:59 51° SW 21:39:18 20° SSE
Cosmos-2242 3.3 21:34:03 26° SSE 21:35:57 47° E 21:39:56 10° NNE
Cosmos 2034 Rocket 4.0 21:32:54 17° S 21:37:56 77° E 21:44:18 10° NNE
Ariane Rocket 4.2 21:38:06 12° SSW 21:42:16 35° W 21:46:55 10° NNW
COSMOS 2406 4.2 21:38:00 10° SW 21:43:34 49° NW 21:49:09 10° NNE
ATLAS 2AS CENTAUR R/B 4.4 21:39:05 10° WNW 21:45:14 34° N 21:51:20 10° ENE
USA 234 4.4 21:41:48 10° E 21:46:21 20° SE 21:47:10 19° SE
TSX-5 3.4 21:45:46 10° NNW 21:48:52 65° NE 21:50:06 34° SE
Cosmos 2333 Rocket 3.9 21:49:50 10° NW 21:54:14 23° WSW 21:58:17 11° SSW
Helios 1B rocket 2.0 21:55:11 36° SSE 21:56:28 76° ENE 21:59:59 10° NNW
Cosmos 2279 Rocket 4.5 21:53:17 23° SSE 21:56:50 47° E 22:02:46 10° NNE
Cosmos 1470 3.1 21:54:06 10° N 21:57:15 40° ENE 21:58:12 32° ESE
Cosmos 1763 Rocket 3.5 21:53:13 15° SSW 21:57:38 88° ESE 22:02:56 10° NNE
Cosmos 1536 2.5 21:54:05 10° N 21:57:47 86° E 21:59:12 36° SSE
Okean 1 3.8 21:56:18 18° SW 21:58:38 47° WNW 22:02:09 10° N
Cosmos 1898 Rocket 3.7 21:53:49 10° NNW 21:59:00 65° ENE 22:02:04 25° SE
Cosmos 1707 1.7 21:59:51 55° S 22:00:23 86° E 22:03:14 10° NNE
Cosmos 2221 3.7 21:59:07 23° ESE 22:00:24 28° E 22:04:00 10° NNE
Cosmos 1634 Rocket 4.0 21:57:45 24° S 22:01:36 68° E 22:07:47 10° NNE
CZ-2C R/B 4.4 21:58:26 10° NNE 22:02:36 38° E 22:04:14 28° SE
Cosmos 1953 Rocket 4.1 21:58:23 10° NNW 22:02:38 52° W 22:04:56 24° SSW
CSL-04 DEB 4.0 22:01:35 37° SSE 22:02:54 78° ENE 22:06:34 10° NNW
Cosmos 1833 4.1 21:57:58 13° SSW 22:03:09 85° ESE 22:08:48 10° NNE
Cosmos 2297 Rocket 3.8 22:01:45 16° ESE 22:03:15 17° E 22:06:51 10° ENE
Cosmos 1461 4.2 21:59:59 10° WSW 22:03:26 35° NW 22:06:50 10° NNE
Cosmos 44 3.6 21:58:52 10° NW 22:04:14 63° SW 22:06:56 28° SSE
Cosmos 2360 Rocket 3.5 22:03:12 10° NW 22:08:03 30° WSW 22:11:23 17° SSW
Cosmos 2322 3.7 22:04:43 10° NNW 22:10:28 86° ENE 22:13:47 26° SSE
Meteor 2-6 Rocket 4.5 22:08:15 26° SSE 22:11:36 61° E 22:17:28 10° NNE
Cosmos 2026 Rocket 4.4 22:07:48 10° NNW 22:14:03 59° W 22:18:17 21° SSW
ISS -3.6 22:10:51 10° W 22:14:06 49° SSW 22:14:19 48° S
USA 290 3.7 22:12:10 13° WSW 22:14:39 35° WNW 22:17:35 10° NNE
Cosmos 2058 Rocket 3.0 22:14:25 29° SSW 22:16:37 82° W 22:20:59 10° N
GP-B 4.4 22:13:21 10° NNE 22:17:09 28° E 22:18:52 22° ESE
CZ-4C R/B 4.3 22:15:40 10° WNW 22:20:24 31° N 22:26:22 10° ENE
Helios 1A 3.0 22:16:35 10° N 22:20:30 68° WNW 22:22:30 27° SSW
SAR-Lupe-2 4.2 22:20:01 32° ESE 22:20:59 41° ENE 22:24:09 10° N
Cosmos 2219 Rocket 3.1 22:16:28 10° NW 22:21:36 36° WSW 22:24:29 22° SSW
Cosmos 2266 Rocket 4.3 22:17:21 10° N 22:23:17 54° ENE 22:26:50 24° SE
Cosmos 1975 2.7 22:20:39 10° N 22:24:19 67° ENE 22:25:24 42° SE
KORONAS-FOTON 3.5 22:25:06 42° SSW 22:26:06 75° WNW 22:29:30 10° N
Cosmos 841 Rocket 3.9 22:28:15 31° SSE 22:30:21 48° ESE 22:35:23 10° NE
RESURS DK-1 2.2 22:27:23 10° NW 22:31:22 70° WSW 22:32:35 42° S
ARIANE 5 R/B 2.6 22:32:16 35° SSE 22:34:07 85° WSW 22:38:37 10° NNW
ALOS 2 2.6 22:33:58 35° SSE 22:35:47 84° ENE 22:40:11 10° NNW
Cosmos 2322 Rocket 4.2 22:35:55 10° WNW 22:39:25 17° W 22:42:34 11° SW
SL-16 R/B 3.9 22:41:32 10° NNW 22:46:33 30° NE 22:51:33 10° ESE
Cosmos 1271 Rocket 2.4 22:46:13 47° SW 22:47:03 72° WNW 22:50:26 10° N
Cosmos 1842 3.2 22:47:39 41° WSW 22:48:21 52° WNW 22:51:28 10° N
Lacrosse 4 Rocket 3.1 22:51:57 17° ESE 22:51:57 17° ESE 22:54:40 10° ENE
Meteor 2-9 Rocket 4.3 22:47:58 10° NNW 22:53:18 65° W 22:55:56 31° S
Cosmos 1766 Rocket 4.3 22:49:20 10° N 22:53:28 43° ENE 22:55:20 27° SE
Spot 4 4.1 22:51:57 33° SSW 22:53:56 60° WSW 22:58:42 10° NNW
PSLV R/B 3.6 22:50:13 10° NNE 22:54:29 66° ESE 22:55:59 39° S
Cosmos 2237 Rocket 2.2 22:53:13 10° NNW 22:58:57 81° ENE 23:02:17 26° SE
CZ-2C R/B 2.9 22:58:57 26° SE 23:01:53 61° ENE 23:07:00 10° N
BREEZE-M DEB (TANK) 4.0 22:48:17 10° WSW 23:02:02 66° SSE 23:05:41 10° E
Cosmos 1980 3.6 22:57:24 10° NNW 23:03:06 90° WSW 23:06:13 28° SSE
ARGOS Delta rocket 4.0 22:58:43 10° NNE 23:03:53 87° W 23:06:32 31° SSW
Cosmos 858 Rocket 4.4 22:59:13 10° NNW 23:04:24 76° WSW 23:06:42 34° SSE
Cosmos 1937 Rocket 3.8 23:02:27 10° NNW 23:07:27 53° WSW 23:09:26 33° SSW
NOSS 8 (H) 4.2 23:06:18 10° NW 23:08:57 57° WSW 23:08:57 57° WSW
COSMOS 2428 3.3 23:04:31 10° NW 23:09:53 44° WSW 23:12:10 29° SSW
NOSS 0 Rocket 4.2 23:06:36 10° NW 23:12:36 55° WSW 23:15:26 30° S
Cosmos 2227 Rocket 3.6 23:11:04 20° SE 23:13:06 25° ESE 23:17:38 10° NE
Meteor 1-11 Rocket 3.8 23:07:28 10° NNW 23:13:07 68° W 23:15:45 32° S
Meteor 2-4 Rocket 4.2 23:11:49 28° SSE 23:14:16 47° E 23:19:34 10° NNE
MetOp-A 3.8 23:18:10 35° S 23:20:12 74° WSW 23:24:52 10° NNW
Meteor 1-10 Rocket 4.3 23:17:23 29° SSW 23:20:32 84° WNW 23:26:32 10° NNE
Cosmos 2263 Rocket 3.9 23:20:54 16° SE 23:23:04 19° E 23:26:56 10° ENE
Cosmos 1238 Rocket 3.0 23:25:54 41° SSE 23:27:07 63° E 23:31:28 10° NNE
Cosmos 1812 Rocket 3.9 23:25:18 32° SW 23:27:08 59° WNW 23:31:31 10° N
USA 234 3.3 23:23:56 10° ENE 23:30:22 56° SE 23:34:29 23° SSW
SeaSat 1 2.6 23:28:37 21° SE 23:31:56 71° NE 23:36:50 10° NNW
CZ-2C R/B 3.3 23:27:01 10° NNE 23:32:47 83° ESE 23:35:48 30° S
ACS3 Solar Sail 2.7 23:28:28 10° NNE 23:33:58 37° E 23:37:20 21° SE
Meteor 1-27 Rocket 3.7 23:32:34 31° S 23:35:32 86° ESE 23:41:18 10° NNE
Cosmos 2221 3.6 23:35:23 23° WSW 23:37:19 35° WNW 23:41:13 10° N
ATLAS 2AS CENTAUR R/B 3.7 23:31:04 10° NW 23:37:37 47° NNE 23:44:08 10° E
BlueWalker 3 3.3 23:41:17 22° ESE 23:41:17 22° ESE 23:43:13 10° E
Meteor 2-20 Rocket 4.2 23:37:28 31° S 23:40:21 82° E 23:46:06 10° NNE
Cosmos 1125 Rocket 4.2 23:40:57 10° NNW 23:46:08 51° ENE 23:50:47 12° SE
Cosmos 2297 Rocket 2.1 23:43:29 29° SSW 23:46:28 85° ESE 23:52:09 10° NNE
Okean 3 Rocket 4.0 23:42:33 10° N 23:47:02 58° ENE 23:49:21 27° SE
Landsat 5 3.5 23:46:17 10° NNE 23:50:23 65° ESE 23:51:40 40° SSE
Cosmos 1340 Rocket 4.2 23:47:29 10° N 23:50:58 32° ENE 23:53:20 17° ESE
Meteor 2-10 Rocket 3.6 23:48:31 10° NNW 23:54:03 86° WSW 23:57:07 29° S
GP-B 4.0 23:50:12 10° NNW 23:54:16 38° W 23:56:01 26° SW
Cosmos 1842 Rocket 3.6 23:53:33 36° S 23:55:14 69° E 23:59:39 10° NNE
